Time,TemperatureF,DewpointF,PressureIn,WindDirection,WindDirectionDegrees,WindSpeedMPH,WindSpeedGustMPH,Humidity,HourlyPrecipIn,Conditions,Clouds,dailyrainin,SoftwareType,DateUTC
2013-02-20 00:01:00,68.0,64.0,30.11,ENE,58,11.0,21.0,86,0.00,,,0.14,,2013-02-20 10:01:00,
2013-02-20 00:11:00,68.0,64.0,30.11,ENE,58,11.0,21.0,86,0.00,,,0.14,,2013-02-20 10:11:00,
2013-02-20 00:21:00,69.0,65.0,30.11,NE,54,8.0,19.0,86,0.00,,,0.14,,2013-02-20 10:21:00,
2013-02-20 00:31:00,69.0,65.0,30.10,NE,45,14.0,19.0,86,0.00,,,0.14,,2013-02-20 10:31:00,
2013-02-20 00:41:00,69.0,65.0,30.10,NE,45,14.0,19.0,86,0.00,,,0.14,,2013-02-20 10:41:00,
2013-02-20 00:51:00,69.0,65.0,30.10,ENE,63,5.0,21.0,86,0.00,,,0.14,,2013-02-20 10:51:00,
2013-02-20 01:01:00,69.0,65.0,30.10,ENE,59,4.0,23.0,86,0.00,,,0.14,,2013-02-20 11:01:00,
2013-02-20 01:11:00,69.0,65.0,30.09,ENE,74,9.0,21.0,86,0.00,,,0.14,,2013-02-20 11:11:00,
2013-02-20 01:21:00,69.0,65.0,30.09,ENE,74,9.0,21.0,86,0.00,,,0.14,,2013-02-20 11:21:00,
2013-02-20 01:31:00,69.0,65.0,30.09,ESE,107,9.0,20.0,86,0.00,,,0.14,,2013-02-20 11:31:00,
2013-02-20 01:41:00,69.0,65.0,30.09,ESE,107,9.0,20.0,86,0.00,,,0.14,,2013-02-20 11:41:00,
2013-02-20 01:52:00,69.0,65.0,30.09,ENE,76,16.0,22.0,87,0.00,,,0.12,,2013-02-20 11:52:00,
2013-02-20 02:01:00,68.0,64.0,30.08,ENE,73,3.0,15.0,86,0.00,,,0.11,,2013-02-20 12:01:00,
2013-02-20 02:11:00,68.0,64.0,30.08,ENE,73,3.0,15.0,86,0.00,,,0.11,,2013-02-20 12:11:00,
2013-02-20 02:21:00,69.0,64.0,30.08,ENE,66,13.0,29.0,85,0.00,,,0.10,,2013-02-20 12:21:00,
2013-02-20 02:31:00,68.0,64.0,30.08,East,98,8.0,17.0,86,0.00,,,0.11,,2013-02-20 12:31:00,
2013-02-20 02:41:00,68.0,64.0,30.08,East,98,8.0,17.0,86,0.00,,,0.11,,2013-02-20 12:41:00,
2013-02-20 02:52:00,68.0,64.0,30.07,ENE,69,7.0,22.0,86,0.00,,,0.03,,2013-02-20 12:52:00,
2013-02-20 03:01:00,68.0,63.0,30.07,NNE,26,10.0,20.0,85,0.00,,,0.03,,2013-02-20 13:01:00,
2013-02-20 03:11:00,68.0,63.0,30.07,NNE,26,10.0,20.0,85,0.00,,,0.03,,2013-02-20 13:11:00,
2013-02-20 03:22:00,69.0,64.0,30.06,ENE,71,12.0,22.0,85,0.00,,,0.03,,2013-02-20 13:22:00,
2013-02-20 03:31:00,69.0,64.0,30.06,ENE,67,13.0,22.0,85,0.00,,,0.03,,2013-02-20 13:31:00,
2013-02-20 03:42:00,69.0,64.0,30.06,ENE,67,13.0,22.0,85,0.00,,,0.03,,2013-02-20 13:42:00,
2013-02-20 03:51:00,69.0,64.0,30.06,NNE,32,7.0,20.0,85,0.00,,,0.03,,2013-02-20 13:51:00,
2013-02-20 04:01:00,69.0,64.0,30.05,ENE,71,12.0,19.0,84,0.00,,,0.03,,2013-02-20 14:01:00,
2013-02-20 04:11:00,69.0,64.0,30.05,ENE,71,12.0,19.0,84,0.00,,,0.03,,2013-02-20 14:11:00,
2013-02-20 04:21:00,69.0,64.0,30.05,ENE,63,13.0,24.0,83,0.00,,,0.03,,2013-02-20 14:21:00,
2013-02-20 04:32:00,69.0,64.0,30.06,East,80,11.0,21.0,84,0.00,,,0.03,,2013-02-20 14:32:00,
2013-02-20 04:42:00,69.0,64.0,30.06,NE,44,4.0,18.0,83,0.00,,,0.03,,2013-02-20 14:42:00,
2013-02-20 04:52:00,69.0,64.0,30.06,NE,44,4.0,18.0,83,0.00,,,0.03,,2013-02-20 14:52:00,
2013-02-20 05:01:00,69.0,64.0,30.06,ENE,59,13.0,18.0,83,0.00,,,0.03,,2013-02-20 15:01:00,
2013-02-20 05:11:00,69.0,64.0,30.06,ENE,69,3.0,22.0,83,0.00,,,0.03,,2013-02-20 15:11:00,
2013-02-20 05:22:00,69.0,64.0,30.06,ENE,69,3.0,22.0,83,0.00,,,0.03,,2013-02-20 15:22:00,
2013-02-20 05:31:00,69.0,63.0,30.07,East,83,11.0,21.0,82,0.00,,,0.03,,2013-02-20 15:31:00,
2013-02-20 05:41:00,69.0,63.0,30.07,ENE,64,12.0,17.0,81,0.00,,,0.03,,2013-02-20 15:41:00,
2013-02-20 05:52:00,69.0,63.0,30.07,ENE,64,12.0,17.0,81,0.00,,,0.03,,2013-02-20 15:52:00,
2013-02-20 06:01:00,69.0,63.0,30.08,ENE,68,5.0,19.0,80,0.00,,,0.03,,2013-02-20 16:01:00,
2013-02-20 06:11:00,69.0,63.0,30.08,NE,51,5.0,18.0,81,0.00,,,0.03,,2013-02-20 16:11:00,
2013-02-20 06:21:00,69.0,63.0,30.08,NE,51,5.0,18.0,81,0.00,,,0.03,,2013-02-20 16:21:00,
2013-02-20 06:32:00,69.0,63.0,30.09,ENE,58,4.0,18.0,81,0.00,,,0.03,,2013-02-20 16:32:00,
2013-02-20 06:41:00,69.0,63.0,30.09,East,84,9.0,17.0,81,0.00,,,0.03,,2013-02-20 16:41:00,
2013-02-20 06:52:00,69.0,63.0,30.09,East,84,9.0,17.0,81,0.00,,,0.03,,2013-02-20 16:52:00,
2013-02-20 07:01:00,70.0,64.0,30.10,ENE,69,4.0,19.0,82,0.00,,,0.03,,2013-02-20 17:01:00,
2013-02-20 07:11:00,69.0,63.0,30.11,ENE,78,3.0,14.0,81,0.00,,,0.03,,2013-02-20 17:11:00,
2013-02-20 07:21:00,69.0,63.0,30.11,ENE,78,3.0,14.0,81,0.00,,,0.03,,2013-02-20 17:21:00,
2013-02-20 07:32:00,70.0,64.0,30.10,East,79,18.0,20.0,82,0.00,,,0.03,,2013-02-20 17:32:00,
2013-02-20 07:41:00,70.0,64.0,30.10,East,79,18.0,20.0,82,0.00,,,0.03,,2013-02-20 17:41:00,
2013-02-20 07:52:00,70.0,65.0,30.11,SE,136,9.0,14.0,83,0.00,,,0.03,,2013-02-20 17:52:00,
2013-02-20 08:02:00,70.0,65.0,30.11,ENE,59,4.0,16.0,83,0.00,,,0.03,,2013-02-20 18:02:00,
2013-02-20 08:11:00,70.0,65.0,30.11,ENE,59,4.0,16.0,83,0.00,,,0.03,,2013-02-20 18:11:00,
2013-02-20 08:21:00,70.0,64.0,30.12,ENE,69,14.0,22.0,82,0.00,,,0.03,,2013-02-20 18:21:00,
2013-02-20 08:31:00,71.0,65.0,30.13,ENE,66,10.0,15.0,82,0.00,,,0.03,,2013-02-20 18:31:00,
2013-02-20 08:41:00,71.0,65.0,30.13,ENE,66,10.0,15.0,82,0.00,,,0.03,,2013-02-20 18:41:00,
2013-02-20 08:52:00,71.0,65.0,30.13,ENE,69,5.0,21.0,82,0.00,,,0.03,,2013-02-20 18:52:00,
2013-02-20 09:01:00,71.0,65.0,30.14,NNE,32,11.0,26.0,80,0.00,,,0.03,,2013-02-20 19:01:00,
2013-02-20 09:11:00,71.0,65.0,30.14,NNE,32,11.0,26.0,80,0.00,,,0.03,,2013-02-20 19:11:00,
2013-02-20 09:21:00,72.0,65.0,30.14,East,101,10.0,23.0,79,0.00,,,0.03,,2013-02-20 19:21:00,
2013-02-20 09:31:00,72.0,65.0,30.14,East,92,13.0,25.0,79,0.00,,,0.03,,2013-02-20 19:31:00,
2013-02-20 09:41:00,72.0,65.0,30.14,East,92,13.0,25.0,79,0.00,,,0.03,,2013-02-20 19:41:00,
2013-02-20 09:52:00,72.0,65.0,30.14,East,82,24.0,24.0,79,0.00,,,0.03,,2013-02-20 19:52:00,
2013-02-20 10:01:00,73.0,66.0,30.14,ENE,59,13.0,24.0,78,0.00,,,0.03,,2013-02-20 20:01:00,
2013-02-20 10:11:00,73.0,65.0,30.14,ESE,105,14.0,26.0,76,0.00,,,0.03,,2013-02-20 20:11:00,
2013-02-20 10:21:00,73.0,65.0,30.14,ESE,105,14.0,26.0,76,0.00,,,0.03,,2013-02-20 20:21:00,
2013-02-20 10:31:00,73.0,66.0,30.15,ESE,107,8.0,30.0,79,0.00,,,0.03,,2013-02-20 20:31:00,
2013-02-20 10:41:00,74.0,67.0,30.16,ENE,63,8.0,17.0,78,0.00,,,0.03,,2013-02-20 20:41:00,
2013-02-20 10:51:00,74.0,67.0,30.16,ENE,63,8.0,17.0,78,0.00,,,0.03,,2013-02-20 20:51:00,
2013-02-20 11:01:00,75.0,67.0,30.15,ENE,70,21.0,26.0,77,0.00,,,0.03,,2013-02-20 21:01:00,
2013-02-20 11:11:00,74.0,67.0,30.15,East,91,3.0,25.0,78,0.00,,,0.03,,2013-02-20 21:11:00,
2013-02-20 11:21:00,74.0,67.0,30.15,East,91,3.0,25.0,78,0.00,,,0.03,,2013-02-20 21:21:00,
2013-02-20 11:31:00,75.0,67.0,30.15,NE,50,18.0,23.0,75,0.00,,,0.03,,2013-02-20 21:31:00,
2013-02-20 11:41:00,75.0,67.0,30.15,NE,50,18.0,23.0,75,0.00,,,0.03,,2013-02-20 21:41:00,
2013-02-20 11:52:00,75.0,67.0,30.14,ENE,67,13.0,13.0,76,0.00,,,0.03,,2013-02-20 21:52:00,
2013-02-20 12:01:00,76.0,67.0,30.14,East,98,8.0,23.0,74,0.00,,,0.03,,2013-02-20 22:01:00,
2013-02-20 12:11:00,74.0,66.0,30.13,East,80,13.0,22.0,75,0.00,,,0.03,,2013-02-20 22:11:00,
2013-02-20 12:21:00,74.0,66.0,30.13,East,80,13.0,22.0,75,0.00,,,0.03,,2013-02-20 22:21:00,
2013-02-20 12:31:00,76.0,67.0,30.13,NE,55,5.0,24.0,74,0.00,,,0.03,,2013-02-20 22:31:00,
2013-02-20 12:41:00,76.0,67.0,30.13,NE,55,5.0,24.0,74,0.00,,,0.03,,2013-02-20 22:41:00,
2013-02-20 12:51:00,76.0,66.0,30.13,East,91,7.0,25.0,71,0.00,,,0.03,,2013-02-20 22:51:00,
2013-02-20 13:01:00,78.0,65.0,30.12,NE,54,11.0,25.0,65,0.00,,,0.03,,2013-02-20 23:01:00,
2013-02-20 13:11:00,77.0,65.0,30.12,ENE,74,17.0,30.0,67,0.00,,,0.03,,2013-02-20 23:11:00,
2013-02-20 13:21:00,77.0,65.0,30.12,ENE,74,17.0,30.0,67,0.00,,,0.03,,2013-02-20 23:21:00,
2013-02-20 13:31:00,77.0,65.0,30.11,East,81,11.0,19.0,67,0.00,,,0.03,,2013-02-20 23:31:00,
2013-02-20 13:42:00,77.0,65.0,30.11,East,81,11.0,19.0,67,0.00,,,0.03,,2013-02-20 23:42:00,
2013-02-20 13:52:00,77.0,66.0,30.11,ENE,62,14.0,18.0,70,0.00,,,0.03,,2013-02-20 23:52:00,
2013-02-20 14:02:00,77.0,66.0,30.11,NE,42,9.0,15.0,68,0.00,,,0.03,,2013-02-21 00:02:00,
2013-02-20 14:11:00,77.0,66.0,30.11,NE,42,9.0,15.0,68,0.00,,,0.03,,2013-02-21 00:11:00,
2013-02-20 14:21:00,78.0,66.0,30.10,East,90,9.0,22.0,66,0.00,,,0.02,,2013-02-21 00:21:00,
2013-02-20 14:31:00,78.0,65.0,30.09,ENE,76,13.0,20.0,64,0.00,,,0.02,,2013-02-21 00:31:00,
2013-02-20 14:41:00,78.0,65.0,30.09,ENE,76,13.0,20.0,64,0.00,,,0.02,,2013-02-21 00:41:00,
2013-02-20 14:52:00,76.0,65.0,30.09,ENE,69,15.0,25.0,69,0.00,,,0.02,,2013-02-21 00:52:00,
2013-02-20 15:01:00,77.0,65.0,30.09,ENE,71,8.0,22.0,67,0.00,,,0.02,,2013-02-21 01:01:00,
2013-02-20 15:11:00,77.0,65.0,30.09,ENE,71,8.0,22.0,67,0.00,,,0.02,,2013-02-21 01:11:00,
2013-02-20 15:21:00,76.0,65.0,30.09,East,98,19.0,27.0,68,0.00,,,0.02,,2013-02-21 01:21:00,
2013-02-20 15:31:00,77.0,65.0,30.09,East,95,7.0,26.0,66,0.00,,,0.02,,2013-02-21 01:31:00,
2013-02-20 15:41:00,77.0,65.0,30.09,East,95,7.0,26.0,66,0.00,,,0.02,,2013-02-21 01:41:00,
2013-02-20 15:52:00,76.0,65.0,30.09,NNE,19,6.0,16.0,68,0.00,,,0.02,,2013-02-21 01:52:00,
2013-02-20 16:01:00,77.0,65.0,30.08,East,92,14.0,17.0,66,0.00,,,0.02,,2013-02-21 02:01:00,
2013-02-20 16:11:00,77.0,65.0,30.08,East,92,14.0,17.0,66,0.00,,,0.02,,2013-02-21 02:11:00,
2013-02-20 16:21:00,77.0,65.0,30.08,NE,55,5.0,21.0,66,0.00,,,0.02,,2013-02-21 02:21:00,
2013-02-20 16:32:00,76.0,64.0,30.08,NE,53,11.0,25.0,67,0.00,,,0.02,,2013-02-21 02:32:00,
2013-02-20 16:41:00,76.0,64.0,30.08,NE,53,11.0,25.0,67,0.00,,,0.02,,2013-02-21 02:41:00,
2013-02-20 16:51:00,76.0,64.0,30.08,NE,53,11.0,25.0,67,0.00,,,0.02,,2013-02-21 02:51:00,
2013-02-20 17:01:00,75.0,64.0,30.08,East,84,10.0,28.0,69,0.00,,,0.02,,2013-02-21 03:01:00,
2013-02-20 17:11:00,75.0,64.0,30.08,East,84,10.0,28.0,69,0.00,,,0.02,,2013-02-21 03:11:00,
2013-02-20 17:21:00,75.0,64.0,30.09,NE,52,4.0,23.0,69,0.00,,,0.02,,2013-02-21 03:21:00,
2013-02-20 17:31:00,74.0,64.0,30.09,ENE,76,10.0,25.0,71,0.00,,,0.02,,2013-02-21 03:31:00,
2013-02-20 17:41:00,74.0,64.0,30.09,ENE,76,10.0,25.0,71,0.00,,,0.02,,2013-02-21 03:41:00,
2013-02-20 17:51:00,73.0,63.0,30.09,NE,46,18.0,28.0,72,0.00,,,0.02,,2013-02-21 03:51:00,
2013-02-20 18:01:00,73.0,64.0,30.09,ENE,63,17.0,25.0,73,0.00,,,0.02,,2013-02-21 04:01:00,
2013-02-20 18:11:00,73.0,64.0,30.09,ENE,63,17.0,25.0,73,0.00,,,0.02,,2013-02-21 04:11:00,
2013-02-20 18:21:00,72.0,62.0,30.10,ENE,76,20.0,32.0,72,0.00,,,0.02,,2013-02-21 04:21:00,
2013-02-20 18:31:00,72.0,63.0,30.10,ENE,74,9.0,24.0,73,0.00,,,0.02,,2013-02-21 04:31:00,
2013-02-20 18:41:00,72.0,63.0,30.10,ENE,74,9.0,24.0,73,0.00,,,0.02,,2013-02-21 04:41:00,
2013-02-20 18:52:00,72.0,64.0,30.11,NE,42,9.0,29.0,75,0.00,,,0.02,,2013-02-21 04:52:00,
2013-02-20 19:02:00,71.0,63.0,30.10,NNE,30,11.0,29.0,76,0.00,,,0.02,,2013-02-21 05:02:00,
2013-02-20 19:11:00,71.0,63.0,30.10,NNE,30,11.0,29.0,76,0.00,,,0.02,,2013-02-21 05:11:00,
2013-02-20 19:21:00,71.0,63.0,30.10,ENE,67,14.0,30.0,76,0.00,,,0.02,,2013-02-21 05:21:00,
2013-02-20 19:32:00,71.0,63.0,30.11,ESE,106,16.0,19.0,77,0.00,,,0.02,,2013-02-21 05:32:00,
2013-02-20 19:42:00,71.0,63.0,30.11,ESE,106,16.0,19.0,77,0.00,,,0.02,,2013-02-21 05:42:00,
2013-02-20 19:55:00,70.0,62.0,30.12,ENE,62,8.0,26.0,77,0.00,,,0.00,,2013-02-21 05:55:00,
2013-02-20 20:01:00,71.0,63.0,30.12,ENE,63,9.0,23.0,77,0.00,,,0.00,,2013-02-21 06:01:00,
2013-02-20 20:10:00,70.0,62.0,30.13,North,5,24.0,24.0,77,0.00,,,0.00,,2013-02-21 06:10:00,
2013-02-20 20:21:00,70.0,62.0,30.13,North,5,24.0,24.0,77,0.00,,,0.00,,2013-02-21 06:21:00,
2013-02-20 20:31:00,70.0,62.0,30.14,ENE,57,13.0,16.0,77,0.00,,,0.00,,2013-02-21 06:31:00,
2013-02-20 20:41:00,70.0,62.0,30.14,ENE,60,23.0,25.0,77,0.00,,,0.00,,2013-02-21 06:41:00,
2013-02-20 20:51:00,70.0,62.0,30.14,ENE,60,23.0,25.0,77,0.00,,,0.00,,2013-02-21 06:51:00,
2013-02-20 21:01:00,70.0,62.0,30.14,NE,43,16.0,21.0,77,0.00,,,0.00,,2013-02-21 07:01:00,
2013-02-20 21:11:00,70.0,62.0,30.14,ENE,71,7.0,24.0,77,0.00,,,0.00,,2013-02-21 07:11:00,
2013-02-20 21:21:00,70.0,62.0,30.14,ENE,71,7.0,24.0,77,0.00,,,0.00,,2013-02-21 07:21:00,
2013-02-20 21:31:00,70.0,62.0,30.14,ENE,71,10.0,27.0,77,0.00,,,0.00,,2013-02-21 07:31:00,
2013-02-20 21:41:00,70.0,63.0,30.15,NE,46,18.0,26.0,78,0.00,,,0.00,,2013-02-21 07:41:00,
2013-02-20 21:52:00,70.0,63.0,30.15,NE,46,18.0,26.0,78,0.00,,,0.00,,2013-02-21 07:52:00,
2013-02-20 22:01:00,70.0,63.0,30.15,ENE,71,9.0,23.0,78,0.00,,,0.00,,2013-02-21 08:01:00,
2013-02-20 22:11:00,70.0,63.0,30.14,East,83,8.0,20.0,78,0.00,,,0.00,,2013-02-21 08:11:00,
2013-02-20 22:21:00,70.0,63.0,30.14,East,83,8.0,20.0,78,0.00,,,0.00,,2013-02-21 08:21:00,
2013-02-20 22:31:00,70.0,63.0,30.14,ESE,111,10.0,23.0,79,0.00,,,0.00,,2013-02-21 08:31:00,
2013-02-20 22:41:00,70.0,63.0,30.14,ESE,111,10.0,23.0,79,0.00,,,0.00,,2013-02-21 08:41:00,
2013-02-20 22:52:00,70.0,63.0,30.14,NNE,29,17.0,29.0,78,0.00,,,0.00,,2013-02-21 08:52:00,
2013-02-20 23:01:00,70.0,63.0,30.13,NNE,13,10.0,27.0,79,0.00,,,0.00,,2013-02-21 09:01:00,
2013-02-20 23:11:00,70.0,63.0,30.13,NNE,13,10.0,27.0,79,0.00,,,0.00,,2013-02-21 09:11:00,
2013-02-20 23:22:00,70.0,63.0,30.13,NE,51,17.0,25.0,78,0.00,,,0.00,,2013-02-21 09:22:00,
2013-02-20 23:31:00,69.0,62.0,30.13,ENE,59,12.0,23.0,78,0.00,,,0.00,,2013-02-21 09:31:00,
2013-02-20 23:41:00,69.0,62.0,30.13,ENE,63,15.0,24.0,79,0.00,,,0.00,,2013-02-21 09:41:00,
2013-02-20 23:52:00,69.0,62.0,30.13,ENE,63,15.0,24.0,79,0.00,,,0.00,,2013-02-21 09:52:00,